Time,TemperatureF,DewpointF,PressureIn,WindDirection,WindDirectionDegrees,WindSpeedMPH,WindSpeedGustMPH,Humidity,HourlyPrecipIn,Conditions,Clouds,dailyrainin,SolarRadiationWatts/m^2,SoftwareType,DateUTC
2013-03-09 00:05:00,46.5,43.0,29.72,SW,230,4.5,9.6,87,0.00,,,-99.99,1.0,HOBO +U30 +Weather +,2013-03-09 08:05:00,
2013-03-09 00:25:00,46.1,42.7,29.73,SW,226,2.9,6.3,87,0.00,,,-99.99,1.0,HOBO +U30 +Weather +,2013-03-09 08:25:00,
2013-03-09 00:30:00,46.3,42.9,29.73,SW,226,4.0,8.9,87,0.00,,,-99.99,1.0,HOBO +U30 +Weather +,2013-03-09 08:30:00,
2013-03-09 00:35:00,46.4,42.9,29.73,SW,232,3.4,9.6,87,0.00,,,-99.99,1.0,HOBO +U30 +Weather +,2013-03-09 08:35:00,
2013-03-09 00:50:00,46.3,42.5,29.75,SW,230,3.4,9.6,86,0.00,,,-99.99,1.0,HOBO +U30 +Weather +,2013-03-09 08:50:00,
2013-03-09 00:55:00,46.2,42.5,29.75,SW,234,2.9,7.4,86,0.00,,,-99.99,1.0,HOBO +U30 +Weather +,2013-03-09 08:55:00,
2013-03-09 01:10:00,46.0,42.4,29.75,SW,225,1.8,5.1,87,0.00,,,-99.99,1.0,HOBO +U30 +Weather +,2013-03-09 09:10:00,
2013-03-09 01:15:00,46.0,42.4,29.75,SW,229,3.4,7.4,87,0.00,,,-99.99,1.0,HOBO +U30 +Weather +,2013-03-09 09:15:00,
2013-03-09 01:50:00,45.5,41.6,29.76,WSW,256,0.0,1.8,86,0.00,,,-99.99,1.0,HOBO +U30 +Weather +,2013-03-09 09:50:00,
2013-03-09 02:05:00,45.0,41.3,29.76,SW,232,0.0,0.0,86,0.00,,,-99.99,1.0,HOBO +U30 +Weather +,2013-03-09 10:05:00,
2013-03-09 02:10:00,44.9,41.3,29.75,SW,230,0.0,1.1,86,0.00,,,-99.99,1.0,HOBO +U30 +Weather +,2013-03-09 10:10:00,
2013-03-09 02:15:00,45.3,41.8,29.75,SW,222,0.0,2.9,87,0.00,,,-99.99,1.0,HOBO +U30 +Weather +,2013-03-09 10:15:00,
2013-03-09 02:20:00,45.1,41.6,29.75,SSW,204,0.0,2.2,87,0.00,,,-99.99,1.0,HOBO +U30 +Weather +,2013-03-09 10:20:00,
2013-03-09 02:30:00,44.8,41.3,29.75,SSW,202,0.0,0.0,87,0.00,,,-99.99,1.0,HOBO +U30 +Weather +,2013-03-09 10:30:00,
2013-03-09 02:50:00,44.7,41.0,29.75,SSW,202,0.0,0.0,86,0.00,,,-99.99,1.0,HOBO +U30 +Weather +,2013-03-09 10:50:00,
2013-03-09 02:55:00,44.9,41.3,29.75,SSW,202,0.0,0.0,87,0.00,,,-99.99,1.0,HOBO +U30 +Weather +,2013-03-09 10:55:00,
2013-03-09 03:15:00,44.9,41.6,29.75,South,191,0.0,1.1,87,0.00,,,-99.99,1.0,HOBO +U30 +Weather +,2013-03-09 11:15:00,
2013-03-09 03:20:00,45.0,41.6,29.75,SSW,195,0.0,2.2,87,0.00,,,-99.99,1.0,HOBO +U30 +Weather +,2013-03-09 11:20:00,
2013-03-09 03:40:00,44.9,41.6,29.76,SSW,194,0.0,0.7,88,0.00,,,-99.99,1.0,HOBO +U30 +Weather +,2013-03-09 11:40:00,
2013-03-09 04:00:00,44.9,41.7,29.78,SSW,201,0.7,2.9,88,0.00,,,-99.99,1.0,HOBO +U30 +Weather +,2013-03-09 12:00:00,
2013-03-09 04:05:00,45.0,41.7,29.78,SW,218,2.2,4.5,88,0.00,,,-99.99,1.0,HOBO +U30 +Weather +,2013-03-09 12:05:00,
2013-03-09 04:20:00,44.9,41.9,29.79,SW,218,3.4,6.3,89,0.00,,,-99.99,1.0,HOBO +U30 +Weather +,2013-03-09 12:20:00,
2013-03-09 04:40:00,44.8,42.2,29.80,SW,220,0.0,2.2,90,0.00,,,-99.99,1.0,HOBO +U30 +Weather +,2013-03-09 12:40:00,
2013-03-09 04:55:00,44.3,42.0,29.82,SW,227,0.7,4.0,91,0.00,,,-99.99,1.0,HOBO +U30 +Weather +,2013-03-09 12:55:00,
2013-03-09 05:00:00,44.2,42.0,29.83,SW,222,1.1,4.0,91,0.00,,,-99.99,1.0,HOBO +U30 +Weather +,2013-03-09 13:00:00,
2013-03-09 05:05:00,44.3,42.1,29.83,SW,223,0.7,4.5,91,0.00,,,-99.99,1.0,HOBO +U30 +Weather +,2013-03-09 13:05:00,
2013-03-09 05:10:00,44.4,42.0,29.83,SW,226,0.0,4.5,91,0.00,,,-99.99,1.0,HOBO +U30 +Weather +,2013-03-09 13:10:00,
2013-03-09 05:20:00,44.4,41.9,29.83,SW,227,0.0,2.2,90,0.00,,,-99.99,1.0,HOBO +U30 +Weather +,2013-03-09 13:20:00,
2013-03-09 05:35:00,44.2,41.9,29.84,SW,227,0.7,4.0,91,0.00,,,-99.99,1.0,HOBO +U30 +Weather +,2013-03-09 13:35:00,
2013-03-09 05:40:00,44.2,42.1,29.85,SW,225,0.0,2.2,92,0.00,,,-99.99,1.0,HOBO +U30 +Weather +,2013-03-09 13:40:00,
2013-03-09 06:50:00,43.6,42.1,29.88,NNW,343,0.0,0.0,94,0.00,,,-99.99,37.0,HOBO +U30 +Weather +,2013-03-09 14:50:00,
2013-03-09 07:15:00,46.1,44.6,29.88,North,355,0.0,1.1,94,0.00,,,-99.99,111.0,HOBO +U30 +Weather +,2013-03-09 15:15:00,
2013-03-09 07:40:00,48.3,45.7,29.89,NW,324,0.0,0.7,90,0.00,,,-99.99,187.0,HOBO +U30 +Weather +,2013-03-09 15:40:00,
2013-03-09 07:50:00,49.2,45.0,29.89,NNW,336,0.0,2.9,85,0.00,,,-99.99,217.0,HOBO +U30 +Weather +,2013-03-09 15:50:00,
2013-03-09 08:10:00,50.9,44.7,29.91,NNW,333,0.0,2.9,79,0.00,,,-99.99,277.0,HOBO +U30 +Weather +,2013-03-09 16:10:00,
2013-03-09 08:15:00,51.5,45.2,29.91,North,352,0.0,2.2,78,0.00,,,-99.99,293.0,HOBO +U30 +Weather +,2013-03-09 16:15:00,
2013-03-09 08:30:00,51.8,45.0,29.91,North,0,0.0,3.4,77,0.00,,,-99.99,337.0,HOBO +U30 +Weather +,2013-03-09 16:30:00,
2013-03-09 08:35:00,52.1,45.4,29.91,North,7,0.0,4.0,77,0.00,,,-99.99,351.0,HOBO +U30 +Weather +,2013-03-09 16:35:00,
2013-03-09 08:40:00,52.6,45.8,29.92,North,354,0.7,5.6,77,0.00,,,-99.99,364.0,HOBO +U30 +Weather +,2013-03-09 16:40:00,
2013-03-09 08:45:00,52.5,45.3,29.92,North,355,0.0,3.4,76,0.00,,,-99.99,378.0,HOBO +U30 +Weather +,2013-03-09 16:45:00,
2013-03-09 08:50:00,53.1,45.7,29.92,NNW,337,0.7,4.0,76,0.00,,,-99.99,392.0,HOBO +U30 +Weather +,2013-03-09 16:50:00,
2013-03-09 09:00:00,53.2,45.6,29.92,NNW,348,0.7,4.0,75,0.00,,,-99.99,418.0,HOBO +U30 +Weather +,2013-03-09 17:00:00,
2013-03-09 09:20:00,53.9,45.0,29.93,NNW,348,0.0,3.4,71,0.00,,,-99.99,468.0,HOBO +U30 +Weather +,2013-03-09 17:20:00,
2013-03-09 09:25:00,54.6,45.9,29.93,NNW,337,0.0,3.4,72,0.00,,,-99.99,481.0,HOBO +U30 +Weather +,2013-03-09 17:25:00,
2013-03-09 09:45:00,56.0,45.7,29.94,North,354,0.0,4.0,68,0.00,,,-99.99,528.0,HOBO +U30 +Weather +,2013-03-09 17:45:00,
2013-03-09 09:50:00,54.4,44.1,29.94,North,4,0.7,2.2,68,0.00,,,-99.99,539.0,HOBO +U30 +Weather +,2013-03-09 17:50:00,
2013-03-09 09:55:00,56.2,45.8,29.94,North,355,0.0,3.4,68,0.00,,,-99.99,551.0,HOBO +U30 +Weather +,2013-03-09 17:55:00,
2013-03-09 10:00:00,57.1,46.1,29.94,WNW,298,0.0,2.2,66,0.00,,,-99.99,559.0,HOBO +U30 +Weather +,2013-03-09 18:00:00,
2013-03-09 10:05:00,57.3,45.8,29.94,NNE,32,0.0,1.8,65,0.00,,,-99.99,571.0,HOBO +U30 +Weather +,2013-03-09 18:05:00,
2013-03-09 10:10:00,58.4,46.4,29.94,SSW,194,0.0,2.2,64,0.00,,,-99.99,582.0,HOBO +U30 +Weather +,2013-03-09 18:10:00,
2013-03-09 10:15:00,58.6,46.0,29.94,SW,234,0.0,1.8,62,0.00,,,-99.99,589.0,HOBO +U30 +Weather +,2013-03-09 18:15:00,
2013-03-09 10:20:00,59.7,46.1,29.94,East,100,0.0,2.2,60,0.00,,,-99.99,598.0,HOBO +U30 +Weather +,2013-03-09 18:20:00,
2013-03-09 10:25:00,59.0,45.2,29.94,SW,229,0.7,4.0,60,0.00,,,-99.99,608.0,HOBO +U30 +Weather +,2013-03-09 18:25:00,
2013-03-09 10:30:00,59.8,46.4,29.94,NNW,340,0.0,2.9,61,0.00,,,-99.99,618.0,HOBO +U30 +Weather +,2013-03-09 18:30:00,
2013-03-09 10:35:00,58.2,45.2,29.94,NNW,341,0.7,2.9,61,0.00,,,-99.99,623.0,HOBO +U30 +Weather +,2013-03-09 18:35:00,
2013-03-09 10:40:00,58.9,45.8,29.95,SW,225,2.2,5.6,61,0.00,,,-99.99,628.0,HOBO +U30 +Weather +,2013-03-09 18:40:00,
2013-03-09 10:45:00,56.2,42.9,29.95,SW,236,4.0,9.6,60,0.00,,,-99.99,638.0,HOBO +U30 +Weather +,2013-03-09 18:45:00,
2013-03-09 10:50:00,57.7,45.2,29.95,WSW,250,4.0,8.9,62,0.00,,,-99.99,642.0,HOBO +U30 +Weather +,2013-03-09 18:50:00,
2013-03-09 10:55:00,57.3,43.6,29.95,WSW,239,4.5,10.7,60,0.00,,,-99.99,649.0,HOBO +U30 +Weather +,2013-03-09 18:55:00,
2013-03-09 11:00:00,57.2,44.1,29.95,SW,226,5.6,10.1,61,0.00,,,-99.99,654.0,HOBO +U30 +Weather +,2013-03-09 19:00:00,
2013-03-09 11:05:00,56.4,43.7,29.95,SW,219,6.3,10.7,62,0.00,,,-99.99,659.0,HOBO +U30 +Weather +,2013-03-09 19:05:00,
2013-03-09 11:10:00,56.5,43.9,29.96,SW,234,5.6,10.7,62,0.00,,,-99.99,666.0,HOBO +U30 +Weather +,2013-03-09 19:10:00,
2013-03-09 11:15:00,57.5,44.8,29.95,SW,229,6.3,9.6,62,0.00,,,-99.99,668.0,HOBO +U30 +Weather +,2013-03-09 19:15:00,
2013-03-09 11:20:00,57.9,44.5,29.96,SW,234,4.5,8.5,60,0.00,,,-99.99,678.0,HOBO +U30 +Weather +,2013-03-09 19:20:00,
2013-03-09 11:30:00,58.2,44.1,29.96,SW,234,4.0,9.6,59,0.00,,,-99.99,683.0,HOBO +U30 +Weather +,2013-03-09 19:30:00,
2013-03-09 11:35:00,58.1,44.3,29.96,SW,222,5.6,10.1,60,0.00,,,-99.99,686.0,HOBO +U30 +Weather +,2013-03-09 19:35:00,
2013-03-09 11:40:00,57.8,43.6,29.96,SW,225,4.5,8.9,58,0.00,,,-99.99,688.0,HOBO +U30 +Weather +,2013-03-09 19:40:00,
2013-03-09 11:45:00,60.9,46.5,29.96,WSW,247,2.9,7.8,59,0.00,,,-99.99,692.0,HOBO +U30 +Weather +,2013-03-09 19:45:00,
2013-03-09 11:50:00,61.8,45.8,29.96,SW,234,1.8,7.4,55,0.00,,,-99.99,696.0,HOBO +U30 +Weather +,2013-03-09 19:50:00,
2013-03-09 12:50:00,57.1,44.8,29.96,SW,219,9.6,16.3,63,0.00,,,-99.99,686.0,HOBO +U30 +Weather +,2013-03-09 20:50:00,
2013-03-09 13:00:00,58.2,46.1,29.95,SW,223,7.8,14.5,63,0.00,,,-99.99,679.0,HOBO +U30 +Weather +,2013-03-09 21:00:00,
2013-03-09 13:50:00,57.0,47.5,29.93,SW,225,8.9,13.4,70,0.00,,,-99.99,629.0,HOBO +U30 +Weather +,2013-03-09 21:50:00,
2013-03-09 13:55:00,56.6,47.9,29.93,SW,232,8.5,15.2,72,0.00,,,-99.99,618.0,HOBO +U30 +Weather +,2013-03-09 21:55:00,
2013-03-09 14:00:00,57.8,48.8,29.93,SW,232,6.3,14.5,72,0.00,,,-99.99,614.0,HOBO +U30 +Weather +,2013-03-09 22:00:00,
2013-03-09 14:15:00,59.3,49.2,29.93,SW,232,4.0,8.5,69,0.00,,,-99.99,589.0,HOBO +U30 +Weather +,2013-03-09 22:15:00,
2013-03-09 14:45:00,56.9,47.2,29.93,SW,226,11.9,17.4,70,0.00,,,-99.99,529.0,HOBO +U30 +Weather +,2013-03-09 22:45:00,
2013-03-09 14:50:00,57.8,47.8,29.94,SW,226,10.7,15.9,69,0.00,,,-99.99,523.0,HOBO +U30 +Weather +,2013-03-09 22:50:00,
2013-03-09 14:55:00,59.0,47.8,29.93,SW,226,8.9,13.4,66,0.00,,,-99.99,512.0,HOBO +U30 +Weather +,2013-03-09 22:55:00,
2013-03-09 15:00:00,59.8,46.9,29.93,SW,227,7.4,12.3,62,0.00,,,-99.99,502.0,HOBO +U30 +Weather +,2013-03-09 23:00:00,
2013-03-09 15:05:00,58.4,46.8,29.93,SW,227,8.9,14.5,65,0.00,,,-99.99,491.0,HOBO +U30 +Weather +,2013-03-09 23:05:00,
2013-03-09 15:10:00,57.8,47.2,29.94,SW,233,7.4,13.0,67,0.00,,,-99.99,477.0,HOBO +U30 +Weather +,2013-03-09 23:10:00,
2013-03-09 15:15:00,57.5,47.3,29.93,SW,227,8.9,15.9,68,0.00,,,-99.99,466.0,HOBO +U30 +Weather +,2013-03-09 23:15:00,
2013-03-09 15:20:00,57.3,47.3,29.93,SW,229,9.6,14.1,69,0.00,,,-99.99,452.0,HOBO +U30 +Weather +,2013-03-09 23:20:00,
2013-03-09 15:25:00,57.9,47.8,29.93,SW,227,7.8,13.0,68,0.00,,,-99.99,441.0,HOBO +U30 +Weather +,2013-03-09 23:25:00,
2013-03-09 15:30:00,58.5,48.0,29.93,SW,222,6.7,11.2,68,0.00,,,-99.99,429.0,HOBO +U30 +Weather +,2013-03-09 23:30:00,
2013-03-09 15:35:00,58.8,47.7,29.93,SW,230,6.3,11.2,66,0.00,,,-99.99,416.0,HOBO +U30 +Weather +,2013-03-09 23:35:00,
2013-03-09 15:40:00,58.7,47.8,29.93,WSW,239,5.1,10.7,66,0.00,,,-99.99,401.0,HOBO +U30 +Weather +,2013-03-09 23:40:00,
2013-03-09 15:45:00,58.5,47.9,29.93,SW,225,6.7,12.3,67,0.00,,,-99.99,387.0,HOBO +U30 +Weather +,2013-03-09 23:45:00,
2013-03-09 15:50:00,58.3,47.9,29.93,SW,223,7.4,13.4,68,0.00,,,-99.99,377.0,HOBO +U30 +Weather +,2013-03-09 23:50:00,
2013-03-09 15:55:00,58.2,48.1,29.93,SW,223,7.8,14.1,69,0.00,,,-99.99,367.0,HOBO +U30 +Weather +,2013-03-09 23:55:00,
2013-03-09 16:05:00,57.9,47.6,29.93,SW,223,8.5,14.5,68,0.00,,,-99.99,338.0,HOBO +U30 +Weather +,2013-03-10 00:05:00,
2013-03-09 16:15:00,59.3,47.3,29.93,SW,222,6.7,10.1,64,0.00,,,-99.99,312.0,HOBO +U30 +Weather +,2013-03-10 00:15:00,
2013-03-09 16:20:00,59.5,46.3,29.92,SW,226,6.7,11.2,61,0.00,,,-99.99,297.0,HOBO +U30 +Weather +,2013-03-10 00:20:00,
2013-03-09 16:25:00,58.6,46.4,29.92,SW,218,7.8,13.4,63,0.00,,,-99.99,282.0,HOBO +U30 +Weather +,2013-03-10 00:25:00,
2013-03-09 16:30:00,58.7,47.0,29.93,SW,225,7.8,11.9,65,0.00,,,-99.99,268.0,HOBO +U30 +Weather +,2013-03-10 00:30:00,
2013-03-09 16:35:00,58.5,46.3,29.93,SW,222,8.5,13.0,63,0.00,,,-99.99,253.0,HOBO +U30 +Weather +,2013-03-10 00:35:00,
2013-03-09 16:40:00,56.6,45.6,29.93,SW,232,8.5,14.5,66,0.00,,,-99.99,238.0,HOBO +U30 +Weather +,2013-03-10 00:40:00,
2013-03-09 16:45:00,56.0,46.7,29.93,SW,226,9.6,15.2,70,0.00,,,-99.99,223.0,HOBO +U30 +Weather +,2013-03-10 00:45:00,
2013-03-09 16:50:00,56.4,47.1,29.93,SW,230,8.9,13.4,70,0.00,,,-99.99,209.0,HOBO +U30 +Weather +,2013-03-10 00:50:00,
2013-03-09 16:55:00,56.7,47.4,29.93,SW,223,8.5,15.2,70,0.00,,,-99.99,194.0,HOBO +U30 +Weather +,2013-03-10 00:55:00,
2013-03-09 17:00:00,57.3,47.3,29.92,SW,229,7.4,11.9,69,0.00,,,-99.99,182.0,HOBO +U30 +Weather +,2013-03-10 01:00:00,
2013-03-09 17:05:00,56.9,46.3,29.92,SW,226,7.4,12.3,67,0.00,,,-99.99,167.0,HOBO +U30 +Weather +,2013-03-10 01:05:00,
2013-03-09 17:10:00,57.1,47.0,29.92,SW,229,7.8,12.3,69,0.00,,,-99.99,152.0,HOBO +U30 +Weather +,2013-03-10 01:10:00,
2013-03-09 17:15:00,56.9,46.8,29.92,SW,233,6.7,10.7,68,0.00,,,-99.99,138.0,HOBO +U30 +Weather +,2013-03-10 01:15:00,
2013-03-09 17:20:00,56.6,47.4,29.93,SW,229,7.8,13.0,71,0.00,,,-99.99,124.0,HOBO +U30 +Weather +,2013-03-10 01:20:00,
2013-03-09 17:25:00,55.5,47.0,29.93,SW,226,7.8,13.0,72,0.00,,,-99.99,108.0,HOBO +U30 +Weather +,2013-03-10 01:25:00,
2013-03-09 17:30:00,55.4,47.7,29.93,SW,227,6.7,12.3,75,0.00,,,-99.99,88.0,HOBO +U30 +Weather +,2013-03-10 01:30:00,
2013-03-09 17:35:00,54.9,47.3,29.93,SW,229,6.7,11.2,75,0.00,,,-99.99,71.0,HOBO +U30 +Weather +,2013-03-10 01:35:00,
2013-03-09 17:40:00,54.3,47.2,29.93,SW,230,7.4,12.3,76,0.00,,,-99.99,19.0,HOBO +U30 +Weather +,2013-03-10 01:40:00,
2013-03-09 17:45:00,54.0,47.3,29.93,SW,227,7.8,12.3,77,0.00,,,-99.99,17.0,HOBO +U30 +Weather +,2013-03-10 01:45:00,
2013-03-09 17:50:00,53.9,47.3,29.93,SW,225,6.7,10.1,78,0.00,,,-99.99,14.0,HOBO +U30 +Weather +,2013-03-10 01:50:00,
2013-03-09 17:55:00,53.6,47.1,29.93,SW,226,6.7,10.1,78,0.00,,,-99.99,11.0,HOBO +U30 +Weather +,2013-03-10 01:55:00,
2013-03-09 18:00:00,53.2,46.9,29.93,SW,227,6.7,10.7,79,0.00,,,-99.99,7.0,HOBO +U30 +Weather +,2013-03-10 02:00:00,
2013-03-09 18:05:00,53.1,46.8,29.93,SW,225,7.4,10.7,79,0.00,,,-99.99,4.0,HOBO +U30 +Weather +,2013-03-10 02:05:00,
2013-03-09 18:10:00,52.9,46.7,29.93,SW,226,7.8,10.7,79,0.00,,,-99.99,2.0,HOBO +U30 +Weather +,2013-03-10 02:10:00,
2013-03-09 18:15:00,52.8,46.7,29.93,SW,229,7.8,13.0,79,0.00,,,-99.99,1.0,HOBO +U30 +Weather +,2013-03-10 02:15:00,
2013-03-09 18:20:00,52.7,46.7,29.94,SW,230,7.8,13.4,79,0.00,,,-99.99,1.0,HOBO +U30 +Weather +,2013-03-10 02:20:00,
2013-03-09 18:25:00,52.1,46.5,29.94,SW,227,10.7,17.0,81,0.00,,,-99.99,1.0,HOBO +U30 +Weather +,2013-03-10 02:25:00,
2013-03-09 18:30:00,51.6,46.6,29.94,SW,230,10.1,16.3,82,0.00,,,-99.99,1.0,HOBO +U30 +Weather +,2013-03-10 02:30:00,
2013-03-09 18:35:00,51.5,46.8,29.94,SW,227,8.5,13.0,84,0.00,,,-99.99,1.0,HOBO +U30 +Weather +,2013-03-10 02:35:00,
2013-03-09 18:40:00,51.4,46.8,29.94,SW,223,9.6,15.2,84,0.00,,,-99.99,1.0,HOBO +U30 +Weather +,2013-03-10 02:40:00,
2013-03-09 18:45:00,51.1,46.7,29.94,SW,234,10.7,17.4,84,0.00,,,-99.99,1.0,HOBO +U30 +Weather +,2013-03-10 02:45:00,
2013-03-09 18:50:00,50.8,46.7,29.94,SW,232,10.7,14.5,85,0.00,,,-99.99,1.0,HOBO +U30 +Weather +,2013-03-10 02:50:00,
2013-03-09 18:55:00,50.6,46.7,29.94,SW,229,8.9,14.5,86,0.00,,,-99.99,1.0,HOBO +U30 +Weather +,2013-03-10 02:55:00,
2013-03-09 19:00:00,50.6,46.6,29.94,SW,230,8.5,13.4,86,0.00,,,-99.99,1.0,HOBO +U30 +Weather +,2013-03-10 03:00:00,
2013-03-09 19:05:00,50.6,46.7,29.94,SW,233,8.5,13.0,86,0.00,,,-99.99,1.0,HOBO +U30 +Weather +,2013-03-10 03:05:00,
2013-03-09 19:10:00,50.6,46.5,29.94,SW,227,7.4,12.3,85,0.00,,,-99.99,1.0,HOBO +U30 +Weather +,2013-03-10 03:10:00,
2013-03-09 19:15:00,50.5,46.5,29.94,SW,230,8.5,14.1,85,0.00,,,-99.99,1.0,HOBO +U30 +Weather +,2013-03-10 03:15:00,
2013-03-09 19:20:00,50.5,46.5,29.94,SW,233,7.4,13.0,85,0.00,,,-99.99,1.0,HOBO +U30 +Weather +,2013-03-10 03:20:00,
2013-03-09 19:25:00,50.9,46.6,29.95,SW,232,6.3,10.7,85,0.00,,,-99.99,1.0,HOBO +U30 +Weather +,2013-03-10 03:25:00,
2013-03-09 19:50:00,50.3,46.1,29.95,SW,225,6.3,9.6,85,0.00,,,-99.99,1.0,HOBO +U30 +Weather +,2013-03-10 03:50:00,
2013-03-09 19:55:00,50.1,46.1,29.95,SW,220,6.3,10.1,86,0.00,,,-99.99,1.0,HOBO +U30 +Weather +,2013-03-10 03:55:00,
2013-03-09 20:30:00,50.3,46.1,29.95,SW,233,7.8,13.0,85,0.00,,,-99.99,1.0,HOBO +U30 +Weather +,2013-03-10 04:30:00,
2013-03-09 20:35:00,50.2,46.0,29.95,SW,227,6.7,11.9,85,0.00,,,-99.99,1.0,HOBO +U30 +Weather +,2013-03-10 04:35:00,
2013-03-09 20:40:00,50.0,46.1,29.95,SW,230,5.6,9.6,86,0.00,,,-99.99,1.0,HOBO +U30 +Weather +,2013-03-10 04:40:00,
2013-03-09 21:00:00,50.7,45.9,29.95,SW,232,2.2,5.6,83,0.00,,,-99.99,1.0,HOBO +U30 +Weather +,2013-03-10 05:00:00,
2013-03-09 21:05:00,51.0,45.6,29.96,SW,236,2.2,6.3,81,0.00,,,-99.99,1.0,HOBO +U30 +Weather +,2013-03-10 05:05:00,
2013-03-09 21:10:00,50.6,45.6,29.96,SW,233,5.1,8.5,82,0.00,,,-99.99,1.0,HOBO +U30 +Weather +,2013-03-10 05:10:00,
2013-03-09 21:15:00,50.6,45.7,29.96,SW,233,4.5,7.8,83,0.00,,,-99.99,1.0,HOBO +U30 +Weather +,2013-03-10 05:15:00,
2013-03-09 21:20:00,50.5,45.5,29.96,SW,232,4.5,7.8,82,0.00,,,-99.99,1.0,HOBO +U30 +Weather +,2013-03-10 05:20:00,
2013-03-09 21:25:00,50.6,45.7,29.96,SW,234,5.6,10.1,83,0.00,,,-99.99,1.0,HOBO +U30 +Weather +,2013-03-10 05:25:00,
2013-03-09 21:30:00,50.4,45.6,29.96,SW,229,4.5,9.6,83,0.00,,,-99.99,1.0,HOBO +U30 +Weather +,2013-03-10 05:30:00,
2013-03-09 21:55:00,49.6,46.0,29.97,SW,227,5.6,8.5,87,0.00,,,-99.99,1.0,HOBO +U30 +Weather +,2013-03-10 05:55:00,
2013-03-09 22:00:00,49.4,46.1,29.97,SW,229,5.1,8.9,88,0.00,,,-99.99,1.0,HOBO +U30 +Weather +,2013-03-10 06:00:00,
2013-03-09 22:05:00,49.3,46.3,29.96,SW,223,4.5,7.8,89,0.00,,,-99.99,1.0,HOBO +U30 +Weather +,2013-03-10 06:05:00,
2013-03-09 22:10:00,49.4,46.4,29.97,SW,225,2.9,5.6,89,0.00,,,-99.99,1.0,HOBO +U30 +Weather +,2013-03-10 06:10:00,
2013-03-09 22:15:00,49.5,46.3,29.96,SW,222,3.4,6.7,88,0.00,,,-99.99,1.0,HOBO +U30 +Weather +,2013-03-10 06:15:00,
2013-03-09 22:20:00,49.4,46.2,29.97,SW,220,4.0,7.4,88,0.00,,,-99.99,1.0,HOBO +U30 +Weather +,2013-03-10 06:20:00,
2013-03-09 22:25:00,49.5,46.4,29.96,SW,218,2.9,5.1,88,0.00,,,-99.99,1.0,HOBO +U30 +Weather +,2013-03-10 06:25:00,
2013-03-09 22:30:00,49.6,46.2,29.96,SW,218,1.8,4.5,88,0.00,,,-99.99,1.0,HOBO +U30 +Weather +,2013-03-10 06:30:00,
2013-03-09 22:35:00,50.1,46.4,29.96,SW,220,0.0,1.8,87,0.00,,,-99.99,1.0,HOBO +U30 +Weather +,2013-03-10 06:35:00,
2013-03-09 22:40:00,50.7,46.3,29.96,SW,220,0.0,1.1,84,0.00,,,-99.99,1.0,HOBO +U30 +Weather +,2013-03-10 06:40:00,
2013-03-09 22:45:00,51.1,45.9,29.96,SW,220,0.0,0.0,82,0.00,,,-99.99,1.0,HOBO +U30 +Weather +,2013-03-10 06:45:00,
2013-03-09 22:50:00,51.2,45.5,29.97,SW,220,0.0,0.0,80,0.00,,,-99.99,1.0,HOBO +U30 +Weather +,2013-03-10 06:50:00,
2013-03-09 22:55:00,51.9,45.6,29.97,SW,220,0.0,0.0,79,0.00,,,-99.99,1.0,HOBO +U30 +Weather +,2013-03-10 06:55:00,
2013-03-09 23:00:00,52.0,45.1,29.97,SW,220,0.0,0.0,77,0.00,,,-99.99,1.0,HOBO +U30 +Weather +,2013-03-10 07:00:00,
2013-03-09 23:05:00,52.4,44.7,29.96,SW,220,0.0,0.0,75,0.00,,,-99.99,1.0,HOBO +U30 +Weather +,2013-03-10 07:05:00,
2013-03-09 23:10:00,53.1,44.5,29.96,SW,220,0.0,0.0,72,0.00,,,-99.99,1.0,HOBO +U30 +Weather +,2013-03-10 07:10:00,
2013-03-09 23:15:00,51.7,43.2,29.97,WSW,256,0.7,5.1,72,0.00,,,-99.99,1.0,HOBO +U30 +Weather +,2013-03-10 07:15:00,
2013-03-09 23:20:00,49.2,43.9,29.97,WSW,241,5.1,11.2,81,0.00,,,-99.99,1.0,HOBO +U30 +Weather +,2013-03-10 07:20:00,
2013-03-09 23:25:00,48.6,45.6,29.96,SW,227,4.5,7.4,89,0.00,,,-99.99,1.0,HOBO +U30 +Weather +,2013-03-10 07:25:00,
2013-03-09 23:30:00,48.5,46.0,29.97,SW,220,4.5,8.9,91,0.00,,,-99.99,1.0,HOBO +U30 +Weather +,2013-03-10 07:30:00,
2013-03-09 23:35:00,48.5,46.3,29.97,SW,225,6.3,12.3,92,0.00,,,-99.99,1.0,HOBO +U30 +Weather +,2013-03-10 07:35:00,
2013-03-09 23:40:00,48.5,46.6,29.98,SW,226,5.1,9.6,92,0.00,,,-99.99,1.0,HOBO +U30 +Weather +,2013-03-10 07:40:00,
2013-03-09 23:45:00,48.6,46.8,29.98,SW,230,5.6,8.5,93,0.00,,,-99.99,1.0,HOBO +U30 +Weather +,2013-03-10 07:45:00,
2013-03-09 23:50:00,48.6,46.9,29.98,SW,229,5.1,8.5,93,0.00,,,-99.99,1.0,HOBO +U30 +Weather +,2013-03-10 07:50:00,
2013-03-09 23:55:00,48.5,46.8,29.97,SW,222,4.5,8.5,93,0.00,,,-99.99,1.0,HOBO +U30 +Weather +,2013-03-10 07:55:00,